TimePDT,TemperatureF,Dew PointF,Humidity,Sea Level PressureIn,VisibilityMPH,Wind Direction,Wind SpeedMPH,Gust SpeedMPH,PrecipitationIn,Events,Conditions,WindDirDegrees,DateUTC
12:53 AM,79.0,55.9,45,29.88,10.0,NW,10.4,-,N/A,,Clear,310,2013-08-29 07:53:00
1:53 AM,77.0,57.9,52,29.89,10.0,NW,6.9,-,N/A,,Clear,310,2013-08-29 08:53:00
2:53 AM,75.0,59.0,57,29.89,10.0,NW,8.1,-,N/A,,Clear,310,2013-08-29 09:53:00
3:53 AM,73.0,60.1,64,29.90,10.0,WNW,10.4,-,N/A,,Clear,300,2013-08-29 10:53:00
4:53 AM,73.0,59.0,61,29.90,10.0,NW,9.2,-,N/A,,Clear,310,2013-08-29 11:53:00
5:53 AM,71.1,57.9,63,29.92,10.0,NW,8.1,-,N/A,,Clear,310,2013-08-29 12:53:00
6:53 AM,71.1,57.0,61,29.94,10.0,NW,6.9,-,N/A,,Clear,320,2013-08-29 13:53:00
7:53 AM,73.0,57.0,57,29.96,10.0,NW,4.6,-,N/A,,Clear,320,2013-08-29 14:53:00
8:53 AM,75.9,55.9,50,29.98,10.0,WNW,5.8,-,N/A,,Clear,300,2013-08-29 15:53:00
9:53 AM,82.0,55.9,41,29.98,10.0,NW,5.8,-,N/A,,Partly Cloudy,320,2013-08-29 16:53:00
10:53 AM,84.9,55.9,37,29.99,10.0,Variable,3.5,-,N/A,,Partly Cloudy,0,2013-08-29 17:53:00
11:53 AM,88.0,55.9,34,29.98,10.0,Calm,Calm,-,N/A,,Partly Cloudy,0,2013-08-29 18:53:00
12:53 PM,93.0,55.9,29,29.96,10.0,Variable,5.8,-,N/A,,Partly Cloudy,0,2013-08-29 19:53:00
1:53 PM,95.0,55.9,27,29.95,9.0,WNW,9.2,-,N/A,,Partly Cloudy,300,2013-08-29 20:53:00
2:53 PM,97.0,55.9,25,29.93,8.0,NW,13.8,18.4,N/A,,Partly Cloudy,310,2013-08-29 21:53:00
3:53 PM,97.0,54.0,23,29.91,9.0,WNW,11.5,-,N/A,,Clear,300,2013-08-29 22:53:00
4:53 PM,97.0,53.1,23,29.90,10.0,NW,13.8,-,N/A,,Clear,310,2013-08-29 23:53:00
5:53 PM,97.0,51.1,21,29.89,10.0,NW,12.7,-,N/A,,Clear,310,2013-08-30 00:53:00
6:53 PM,93.9,50.0,22,29.89,10.0,NW,12.7,-,N/A,,Clear,310,2013-08-30 01:53:00
7:53 PM,90.0,50.0,25,29.90,10.0,WNW,13.8,-,N/A,,Clear,300,2013-08-30 02:53:00
8:53 PM,87.1,52.0,30,29.91,10.0,WNW,13.8,-,N/A,,Clear,290,2013-08-30 03:53:00
9:53 PM,84.0,53.1,34,29.94,10.0,NW,13.8,-,N/A,,Clear,310,2013-08-30 04:53:00
10:53 PM,82.0,54.0,38,29.95,10.0,NW,10.4,-,N/A,,Clear,310,2013-08-30 05:53:00
11:53 PM,79.0,55.0,44,29.96,10.0,NW,8.1,-,N/A,,Clear,310,2013-08-30 06:53:00